QFA237 YPAD-YPLC

Flight info

Callsign QFA237
Flight time 0h 33m
Altitude 16000
Route AD J15 TEDUS V538 PLC
Aircraft B738/M-SDE2E3FGHIRWXY/LB1

Departure

Time 2026-05-04 03:24
Airport Adelaide International Airport (YPAD)

Arrival

Time 2026-05-04 03:58
Airport Port Lincoln Airport (YPLC)
Time Latitude Longitude Altitude Speed Heading
2026-05-04 02:17 -34.93809 138.54034 30 ft 0 kts 320°
2026-05-04 03:11 -34.93824 138.54048 29 ft 4 kts 330°
2026-05-04 03:12 -34.93846 138.54064 30 ft 4 kts 314°
2026-05-04 03:12 -34.93858 138.54084 30 ft 4 kts 274°
2026-05-04 03:12 -34.93857 138.54102 30 ft 0 kts 271°
2026-05-04 03:19 -34.93868 138.54091 27 ft 2 kts 184°
2026-05-04 03:19 -34.93876 138.54100 28 ft 2 kts 126°
2026-05-04 03:19 -34.93896 138.54137 25 ft 10 kts 129°
2026-05-04 03:19 -34.93970 138.54216 27 ft 14 kts 139°
2026-05-04 03:20 -34.93994 138.54240 28 ft 0 kts 140°
2026-05-04 03:21 -34.94006 138.54252 25 ft 6 kts 140°
2026-05-04 03:21 -34.94055 138.54296 26 ft 9 kts 162°
2026-05-04 03:22 -34.94113 138.54257 26 ft 10 kts 230°
2026-05-04 03:22 -34.94116 138.54251 25 ft 0 kts 230°
2026-05-04 03:23 -34.94117 138.54251 25 ft 1 kts 230°
2026-05-04 03:24 -34.94286 138.54004 25 ft 87 kts 230°
2026-05-04 03:24 -34.94863 138.53153 146 ft 164 kts 233°
2026-05-04 03:24 -34.95642 138.51949 844 ft 199 kts 231°
2026-05-04 03:24 -34.96494 138.50718 2258 ft 189 kts 232°
2026-05-04 03:25 -34.97337 138.49406 2868 ft 207 kts 233°
2026-05-04 03:25 -34.98268 138.47964 3332 ft 226 kts 233°
2026-05-04 03:25 -34.99264 138.46407 4036 ft 238 kts 233°
2026-05-04 03:25 -35.00304 138.44806 4732 ft 242 kts 233°
2026-05-04 03:26 -35.01034 138.43005 4977 ft 243 kts 261°
2026-05-04 03:26 -35.00959 138.40904 5010 ft 251 kts 275°
2026-05-04 03:26 -35.00710 138.38797 5007 ft 251 kts 276°
2026-05-04 03:26 -35.00449 138.36707 5005 ft 248 kts 276°
2026-05-04 03:27 -35.00187 138.34610 5264 ft 253 kts 276°
2026-05-04 03:27 -34.99923 138.32481 6290 ft 253 kts 276°
2026-05-04 03:27 -34.99662 138.30356 7345 ft 254 kts 276°
2026-05-04 03:27 -34.99401 138.28225 8309 ft 257 kts 276°
2026-05-04 03:28 -34.99137 138.26045 9270 ft 261 kts 276°
2026-05-04 03:28 -34.98869 138.23832 10201 ft 266 kts 276°
2026-05-04 03:28 -34.98598 138.21594 11070 ft 269 kts 276°
2026-05-04 03:28 -34.98323 138.19315 11932 ft 273 kts 275°
2026-05-04 03:29 -34.98046 138.17016 12867 ft 275 kts 275°
2026-05-04 03:29 -34.97765 138.14697 13768 ft 279 kts 274°
2026-05-04 03:29 -34.97482 138.12347 14556 ft 282 kts 274°
2026-05-04 03:29 -34.97193 138.09963 15357 ft 286 kts 274°
2026-05-04 03:30 -34.96902 138.07554 15807 ft 288 kts 274°
2026-05-04 03:30 -34.96607 138.05121 16012 ft 291 kts 274°
2026-05-04 03:30 -34.96310 138.02688 16043 ft 291 kts 274°
2026-05-04 03:30 -34.96010 138.00192 16054 ft 314 kts 274°
2026-05-04 03:31 -34.95678 137.97428 16077 ft 337 kts 274°
2026-05-04 03:31 -34.95330 137.94564 16063 ft 344 kts 274°
2026-05-04 03:31 -34.94973 137.91671 16054 ft 344 kts 274°
2026-05-04 03:31 -34.94615 137.88790 16046 ft 343 kts 274°
2026-05-04 03:32 -34.94258 137.85915 16044 ft 343 kts 274°
2026-05-04 03:32 -34.93902 137.83041 16048 ft 343 kts 274°
2026-05-04 03:32 -34.93547 137.80174 16028 ft 343 kts 274°
2026-05-04 03:32 -34.93192 137.77305 16047 ft 342 kts 274°
2026-05-04 03:33 -34.92835 137.74426 16040 ft 343 kts 274°
2026-05-04 03:33 -34.92480 137.71561 16063 ft 344 kts 274°
2026-05-04 03:33 -34.92121 137.68673 16065 ft 344 kts 274°
2026-05-04 03:33 -34.91761 137.65786 16062 ft 345 kts 274°
2026-05-04 03:34 -34.91399 137.62893 16067 ft 345 kts 274°
2026-05-04 03:34 -34.91025 137.60005 16065 ft 346 kts 276°
2026-05-04 03:34 -34.90564 137.57122 16059 ft 347 kts 277°
2026-05-04 03:34 -34.90062 137.54242 16068 ft 348 kts 277°
2026-05-04 03:35 -34.89551 137.51354 16061 ft 348 kts 277°
2026-05-04 03:35 -34.89044 137.48478 16063 ft 348 kts 277°
2026-05-04 03:35 -34.88540 137.45590 16067 ft 348 kts 277°
2026-05-04 03:35 -34.88041 137.42711 16065 ft 348 kts 277°
2026-05-04 03:36 -34.87544 137.39829 16061 ft 348 kts 277°
2026-05-04 03:36 -34.87055 137.36985 16052 ft 348 kts 277°
2026-05-04 03:36 -34.86553 137.34068 16070 ft 348 kts 277°
2026-05-04 03:36 -34.86057 137.31181 16070 ft 349 kts 277°
2026-05-04 03:37 -34.85566 137.28329 16071 ft 349 kts 277°
2026-05-04 03:37 -34.85061 137.25398 16074 ft 349 kts 277°
2026-05-04 03:37 -34.84562 137.22506 16070 ft 349 kts 277°
2026-05-04 03:37 -34.84061 137.19614 16072 ft 349 kts 277°
2026-05-04 03:38 -34.83561 137.16722 16072 ft 349 kts 277°
2026-05-04 03:38 -34.83059 137.13829 16076 ft 349 kts 277°
2026-05-04 03:38 -34.82558 137.10941 16073 ft 349 kts 277°
2026-05-04 03:38 -34.82054 137.08043 16074 ft 349 kts 277°
2026-05-04 03:39 -34.81556 137.05184 16077 ft 349 kts 277°
2026-05-04 03:39 -34.81053 137.02294 16075 ft 349 kts 277°
2026-05-04 03:39 -34.80540 136.99360 16073 ft 349 kts 277°
2026-05-04 03:39 -34.80042 136.96512 16058 ft 349 kts 277°
2026-05-04 03:40 -34.79645 136.93566 16073 ft 347 kts 272°
2026-05-04 03:40 -34.79403 136.90696 16078 ft 346 kts 271°
2026-05-04 03:40 -34.79200 136.87782 16080 ft 346 kts 270°
2026-05-04 03:40 -34.79002 136.84916 16063 ft 333 kts 270°
2026-05-04 03:41 -34.78804 136.82146 15869 ft 326 kts 270°
2026-05-04 03:41 -34.78604 136.79426 15630 ft 322 kts 271°
2026-05-04 03:41 -34.78401 136.76724 15268 ft 318 kts 271°
2026-05-04 03:41 -34.78196 136.74057 14882 ft 316 kts 271°
2026-05-04 03:42 -34.77989 136.71402 14498 ft 314 kts 271°
2026-05-04 03:42 -34.77782 136.68771 14116 ft 312 kts 271°
2026-05-04 03:42 -34.77575 136.66150 13705 ft 310 kts 271°
2026-05-04 03:42 -34.77368 136.63548 13284 ft 309 kts 272°
2026-05-04 03:43 -34.77161 136.60956 12874 ft 307 kts 272°
2026-05-04 03:43 -34.76955 136.58389 12488 ft 304 kts 272°
2026-05-04 03:43 -34.76750 136.55832 12078 ft 303 kts 272°
2026-05-04 03:43 -34.76545 136.53290 11694 ft 301 kts 272°
2026-05-04 03:44 -34.76340 136.50763 11313 ft 299 kts 272°
2026-05-04 03:44 -34.76137 136.48253 10939 ft 297 kts 273°
2026-05-04 03:44 -34.75934 136.45762 10568 ft 296 kts 273°
2026-05-04 03:44 -34.75734 136.43311 10429 ft 286 kts 273°
2026-05-04 03:45 -34.75540 136.40941 10289 ft 277 kts 273°
2026-05-04 03:45 -34.75352 136.38649 10177 ft 268 kts 273°
2026-05-04 03:45 -34.75170 136.36433 10042 ft 260 kts 273°
2026-05-04 03:45 -34.74991 136.34261 9767 ft 258 kts 273°
2026-05-04 03:46 -34.74814 136.32108 9517 ft 255 kts 273°
2026-05-04 03:46 -34.74331 136.30042 9220 ft 259 kts 298°
2026-05-04 03:46 -34.73137 136.28409 9000 ft 261 kts 318°
2026-05-04 03:46 -34.71613 136.27201 8745 ft 262 kts 324°
2026-05-04 03:47 -34.70040 136.26076 8457 ft 261 kts 325°
2026-05-04 03:47 -34.68474 136.24969 8183 ft 260 kts 325°
2026-05-04 03:47 -34.66916 136.23862 7909 ft 259 kts 325°
2026-05-04 03:47 -34.65366 136.22754 7645 ft 258 kts 325°
2026-05-04 03:48 -34.63829 136.21649 7374 ft 257 kts 325°
2026-05-04 03:48 -34.62296 136.20544 7095 ft 255 kts 325°
2026-05-04 03:48 -34.60775 136.19444 6840 ft 254 kts 325°
2026-05-04 03:48 -34.59260 136.18348 6569 ft 253 kts 325°
2026-05-04 03:49 -34.57754 136.17257 6296 ft 252 kts 325°
2026-05-04 03:49 -34.56251 136.16168 6003 ft 251 kts 324°
2026-05-04 03:49 -34.54756 136.15084 5742 ft 249 kts 325°
2026-05-04 03:49 -34.53274 136.14011 5478 ft 248 kts 324°
2026-05-04 03:50 -34.51798 136.12941 5223 ft 246 kts 324°
2026-05-04 03:50 -34.50342 136.11889 5102 ft 241 kts 324°
2026-05-04 03:50 -34.48907 136.10850 4995 ft 240 kts 324°
2026-05-04 03:50 -34.47966 136.10170 4924 ft 236 kts 325°
2026-05-04 03:51 -34.46580 136.09170 4832 ft 228 kts 323°
2026-05-04 03:51 -34.45272 136.08167 4715 ft 217 kts 313°
2026-05-04 03:51 -34.44539 136.06737 4656 ft 187 kts 285°
2026-05-04 03:51 -34.44214 136.04739 4127 ft 188 kts 274°
2026-05-04 03:52 -34.44081 136.03222 3918 ft 175 kts 273°
2026-05-04 03:52 -34.43995 136.02260 3860 ft 167 kts 273°
2026-05-04 03:52 -34.43868 136.00855 3780 ft 168 kts 273°
2026-05-04 03:52 -34.43739 135.99447 3631 ft 167 kts 272°
2026-05-04 03:53 -34.43934 135.98076 3563 ft 170 kts 244°
2026-05-04 03:53 -34.45090 135.96829 3302 ft 172 kts 209°
2026-05-04 03:53 -34.45806 135.96393 3138 ft 169 kts 211°
2026-05-04 03:53 -34.47124 135.95580 2851 ft 148 kts 210°
2026-05-04 03:54 -34.47731 135.95210 2723 ft 140 kts 212°
2026-05-04 03:54 -34.48573 135.94696 2540 ft 132 kts 211°
2026-05-04 03:54 -34.49393 135.94196 2400 ft 135 kts 211°
2026-05-04 03:54 -34.50252 135.93672 2191 ft 139 kts 210°
2026-05-04 03:55 -34.51105 135.93154 2023 ft 136 kts 211°
2026-05-04 03:55 -34.51940 135.92646 1839 ft 133 kts 211°
2026-05-04 03:55 -34.52756 135.92151 1653 ft 129 kts 212°
2026-05-04 03:55 -34.53559 135.91662 1491 ft 132 kts 211°
2026-05-04 03:56 -34.54400 135.91153 1319 ft 136 kts 210°
2026-05-04 03:56 -34.55259 135.90634 1146 ft 138 kts 211°
2026-05-04 03:56 -34.56098 135.90123 947 ft 132 kts 210°
2026-05-04 03:56 -34.56932 135.89618 772 ft 135 kts 211°
2026-05-04 03:57 -34.57771 135.89137 582 ft 134 kts 210°
2026-05-04 03:57 -34.58636 135.88696 368 ft 135 kts 206°
2026-05-04 03:57 -34.59522 135.88313 159 ft 135 kts 202°
2026-05-04 03:57 -34.60408 135.87972 33 ft 133 kts 197°
2026-05-04 03:58 -34.61111 135.87718 35 ft 1 kts 196°
2026-05-04 03:58 -34.61152 135.87707 34 ft 11 kts 187°
2026-05-04 03:58 -34.61221 135.87684 32 ft 2 kts 312°
2026-05-04 03:59 -34.61149 135.87701 34 ft 21 kts 19°
2026-05-04 03:59 -34.60939 135.87779 33 ft 41 kts 17°
2026-05-04 03:59 -34.60642 135.87887 33 ft 31 kts 17°
2026-05-04 03:59 -34.60469 135.87852 30 ft 13 kts 328°
2026-05-04 04:00 -34.60416 135.87733 32 ft 19 kts 288°
2026-05-04 04:00 -34.60395 135.87613 33 ft 10 kts 259°
2026-05-04 04:00 -34.60402 135.87551 33 ft 4 kts 282°
2026-05-04 04:00 -34.60401 135.87545 33 ft 0 kts 282°